www.pogodaiklimat.ru

Погода и климат >> Архив погоды >> Россия >> Челябинская область >> Магнитогорск


АРХИВ ПОГОДЫ в Магнитогорске

Время (UTC), дата Ветер
(напр.,м/с)
 
Видим.   Явления Облачность Т
(С)
Тd
(С)
f
(%)
Тe
(С)
Тes
(С)
Комфортность P
(гПа)
Po
(гПа)
Тmin
(С)
Tmax
(С)
R
(мм)
R24
(мм)
S
(см)
21 14.04 СВ 6
{13}
10 км {снег} 10/10 600 м
[Sc]
-2.0 -6.2 73 -9 -9 холодно 1021.3 973.3
00 15.04 СВ 5 10 км {снег} 10/10 600 м
[Sc]
-2.5 -7.4 69 -9 -9 холодно 1021.5 973.4
03 15.04 СВ 6
{10}
20 км 9/9 600 м
[Sc]
-3.4 -9.8 61 -10 -10 очень
холодно
1022.6 974.3 -3.4 1 3
06 15.04 С 5 20 км 4/0
[Ac trans]
-1.6 -10.0 53 -7 -4 очень
холодно
1022.6 974.7
09 15.04 С 3 20 км ясно +0.4 -9.3 48 -3 +6 очень
холодно
1021.8 974.2
12 15.04 ЮВ 1 20 км ясно +3.9 -6.9 45 +3 +9 прохладно 1019.3 972.4
15 15.04 ЮЗ 1 20 км ясно +2.2 -3.8 64 +1 +1 прохладно 1018.5 971.3 +4.6
18 15.04 штиль 0 10 км ясно -2.9 -5.6 82 -4 -4 прохладно 1019.1 971.1
21 15.04 Ю 1 10 км 3/0
[Ac trans]
-4.1 -5.9 87 -6 -6 прохладно 1018.7 970.5
00 16.04 Ю 1 10 км 4/0
[Ac trans]
-3.0 -7.9 69 -5 -5 по сезону 1017.8 969.8
03 16.04 ЮЗ 3 20 км 3/0
[Ac cast]
+2.1 -8.5 45 -1 0 по сезону 1015.4 968.4 -4.3
06 16.04 З 3 20 км 8/0
[Ac trans]
+5.2 -10.2 32 +3 +7 по сезону 1014.2 967.7
09 16.04 З 4
{12}
20 км 6/0
[Ac trans]
+7.5 -7.9 33 +5 +10 по сезону 1012.2 966.2
12 16.04 З 7-11
{13}
20 км 8/0
[Ac trans]
+6.3 -6.7 39 +2 +3 холодно 1011.7 965.5
15 16.04 СЗ 2
{12}
20 км 8/8 600 м
[Sc]
+4.6 -5.0 50 +3 +3 по сезону 1011.4 965.0 +8.0
18 16.04 З 4
{10}
10 км 8/0
[Ac trans]
+3.1 -4.8 56 -1 -1 по сезону 1011.3 964.7
21 16.04 СЗ 6-14
{14}
10 км 6/0
[Ac trans]
+1.2 -3.9 69 -5 -5 прохладно 1011.6 964.6
00 17.04 С 9-13
{14}
10 км 4/0
[Ac trans]
-4.0 -11.0 58 -13 -13 очень
холодно
1015.9 967.8
03 17.04 С 8-12
{16}
20 км ясно -6.4 -14.1 54 -15 -15 очень
холодно
1020.3 971.6 -6.8
06 17.04 С 8-12
{14}
20 км 6/6 600 м
[Sc]
-4.3 -14.7 44 -12 -12 очень
холодно
1022.3 973.8
09 17.04 С 8-13
{14}
20 км 3/3 600 м
[Sc]
-2.5 -15.9 35 -10 -8 очень
холодно
1023.9 975.7
12 17.04 С 6-10
{14}
20 км 3/3 600 м
[Sc]
-0.5 -15.4 31 -6 -5 очень
холодно
1024.9 977.0
15 17.04 С 6
{13}
20 км ясно -3.6 -14.6 42 -10 -10 очень
холодно
1027.6 979.1 -0.3
18 17.04 С 3 10 км ясно -5.4 -14.0 51 -10 -10 очень
холодно
1030.2 981.2
21 17.04 С 2 10 км ясно -6.4 -14.8 51 -10 -10 очень
холодно
1031.7 982.4
00 18.04 С 3 10 км ясно -7.7 -15.2 55 -13 -13 очень
холодно
1032.2 982.7
03 18.04 СВ 4 20 км ясно -3.9 -15.1 41 -9 -8 очень
холодно
1031.9 983.1 -8.2
06 18.04 СВ 3 20 км ясно -0.1 -17.1 26 -4 +5 очень
холодно
1031.9 983.7
09 18.04 20 км ясно +2.5 -19.0 19 1031.6 983.6
12 18.04 В 2 20 км ясно +4.6 -18.9 16 +3 +8 холодно 1028.3 981.1
15 18.04 В 2 20 км ясно +0.3 -16.0 28 -2 -2 холодно 1027.8 979.9 +4.9
18 18.04 СВ 2 10 км ясно -3.7 -14.0 45 -7 -7 очень
холодно
1028.6 980.0
21 18.04 С 2 10 км ясно -4.9 -15.5 43 -8 -8 холодно 1028.2 979.4
00 19.04 СЗ 2 10 км ясно -6.6 -12.8 61 -11 -11 очень
холодно
1027.7 978.6
03 19.04 СЗ 1 20 км ясно -1.9 -10.2 53 -3 -1 прохладно 1026.0 977.8 -10.0
06 19.04 С 4 20 км 3/0
[Ci fib]
+4.1 -15.4 23 +1 +7 прохладно 1023.8 976.7
09 19.04 СВ 6 20 км ясно +6.5 -16.6 17 +3 +8 прохладно 1021.7 975.0
12 19.04 С 6
{10}
20 км ясно +7.2 -17.5 15 +4 +6 холодно 1020.7 974.2
15 19.04 СВ 2 20 км ясно +3.3 -14.0 27 +1 +1 прохладно 1021.1 974.0 +7.5
18 19.04 С 2 10 км ясно +0.3 -14.0 33 -2 -2 прохладно 1022.4 974.7
21 19.04 С 3 10 км ясно -1.4 -13.5 39 -5 -5 прохладно 1022.9 974.9
00 20.04 штиль 0 10 км ясно -4.2 -13.0 50 -5 -5 прохладно 1023.4 974.9
03 20.04 штиль 0 20 км ясно +2.8 -12.2 32 +3 +6 по сезону 1022.8 975.5 -6.1
06 20.04 СВ 2 20 км ясно +7.1 -11.8 25 +6 +16 опасность
простуды
1022.4 975.8
09 20.04 С 5-12
{12}
20 км ясно +9.8 -13.4 18 +8 +14 по сезону 1021.2 975.1
12 20.04 С 3
{12}
20 км ясно +10.9 -14.9 15 +10 +14 по сезону 1020.7 974.8
15 20.04 СЗ 2 20 км ясно +8.7 -14.4 18 +8 +8 по сезону 1021.3 975.0 +11.1
18 20.04 С 3 10 км ясно +2.5 -11.3 35 -1 -1 прохладно 1023.8 976.5
21 20.04 С 3 10 км ясно -2.5 -6.5 74 -7 -7 холодно 1026.0 977.8
00 21.04 СЗ 2 10 км ясно -4.9 -7.0 85 -9 -9 холодно 1026.7 978.0
03 21.04 СВ 1 20 км 3/0
[Ac trans]
+2.0 -4.8 61 +1 +3 по сезону 1025.8 978.3 -5.6
06 21.04 ЮЗ 2 20 км ясно +7.6 -5.9 38 +6 +17 опасность
простуды
1024.3 977.8
09 21.04 З 3 20 км 3/3 600 м
[Sc]
+10.5 -7.9 27 +9 +16 по сезону 1022.5 976.5
12 21.04 С 2 20 км 3/3 600 м
[Sc]
+11.0 -8.3 25 +10 +14 по сезону 1021.2 975.3
15 21.04 В 2 20 км ясно +7.1 -7.1 36 +6 +6 по сезону 1021.4 974.9 +12.0
18 21.04 СВ 4 10 км ясно +2.8 -6.3 51 -1 -1 прохладно 1023.4 976.1

 

Местоположение метеостанции Магнитогорск (Челябинская область, Россия): широта 53.35 долгота 59.08 высота над уровнем моря 384 м.

В архиве по умолчанию представлена погода в Магнитогорске за последнюю неделю. Архивные данные за месяц целиком и за предыдущие месяцы, начиная с января 2011 года, Вы можете получить, выбрав интересующий диапазон дат из раскрывающегося списка и нажав кнопку "Ввод!".


*Определитесь, кто Вы:
робот инопланетянин человек

Внимание! Время в таблицах - всемирное. Для получения местного времени необходимо прибавить поправку, которая равна 5 ч.

Смотрите также архив погоды в соседних городах и на ближайших метеорологических станциях:

Погода в Верхнеуральске (Челябинская область, Россия) (59 км)
Погода в Кизильском (Челябинская область, Россия) (71 км)
Погода в Белорецке (Башкирия, Россия) (81 км)
Погода в Карталы (Челябинская область, Россия) (111 км)
Погода в Тукане (Башкирия, Россия) (112 км)
Погода в Старосубхангулово (Башкирия, Россия) (113 км)
Погода в Учалах (Башкирия, Россия) (115 км)
Погода в Николаевке (Башкирия, Россия) (116 км)
Погода в Бредах (Челябинская область, Россия) (133 км)
Погода в Ревети (Башкирия, Россия) (133 км)

Пояснения к столбцам:

Ветер - указаны скорость ветра в м/с - средняя за 10 мин, порывы в срок и между сроками (в фигурных скобках) и направление, откуда дует ветер: С - северный, СВ - северо-восточный, В - восточный, ЮВ - юго-восточный, Ю - южный, ЮЗ - юго-западный, З - западный, СЗ - северо-западный.
Видимость - горизонтальная дальность видимости в метрах или километрах. При видимости от 1 до 10 км при отсутствии осадков обычно наблюдается дымка, при ухудшении видимости до 1 км и менее - туман. В сухую погоду видимость может ухудшаться дымом, пылью или мглою.
Явления - указаны атмосферные явления, наблюдавшиеся в срок или в последний час перед сроком; фигурными скобками обозначены явления, наблюдавшиеся между сроками (за 1-3 часа до срока); квадратными скобками обозначены град или гололедные отложения с указанием их диаметра в мм.
Облачность - указаны через наклонную черту общая и нижняя облачность в баллах и высота нижней границы облаков в метрах; квадратными скобками обозначены формы облаков: Ci - перистые, Cs - перисто-слоистые, Cc - перисто-кучевые, Ac - высококучевые, As - высокослоистые, Sc - слоисто-кучевые, Ns - слоисто-дождевые, Cu - кучевые, Cb - кучево-дождевые. Подробнее классификацию облаков см. в Атласе облаков (PDF).
T - Температура воздуха - температура, измеренная на высоте 2 м над землей.
Td - Температура точки росы - температура, при понижении до которой содержащийся в воздухе водяной пар достигнет насыщения.
f - Относительная влажность воздуха - влажноcть воздуха, измеренная на высоте 2 м над землей.
Te - Эффективная температура - температура, которую ощущает одетый по сезону человек в тени. Характеристика душности погоды. При расчете учитывается влияние влажности воздуха и скорости ветра на теплоощущения человека.
Tes - Эффективная температура на солнце - температура, которую ощущает человек, с поправкой на солнечный нагрев. Характеристика знойности погоды. Зависит от высоты солнца над горизонтом, облачности и скорости ветра. Ночью, в пасмурную погоду, а также при ветре 12 м/с и более поправка равна нулю.
P - Атмосферное давление - приведенное к уровню моря атмосферное давление.
Po - Атмосферное давление - измеренное на уровне метеостанции атмосферное давление.
Tmin - Минимальная температура - минимум температуры воздуха на высоте 2 м над землей.
Tmax - Максимальная температура - максимум температуры воздуха на высоте 2 м над землей.
R - Количество осадков - Количество выпавших осадков за период времени, мм. При наведении курсора мыши на число - период времени, за который выпало указанное количество осадков.
R24 - Количество осадков - Количество выпавших осадков за 24 часа, мм.
S - Снежный покров - Высота снежного покрова, см. При наведении курсора мыши на число - состояние снежного покрова и степень покрытия местности в баллах.